Location: Eastlake (historical)
(39.0077°N, 122.6678°W)
Time: 12:44:06
(UTC+00:00)

SL-16 R/B - Pass Details

Date: 25 November 2020
Orbit: 841 x 849 km, 71.0° (Epoch: 26 January)

Event Time Altitude Azimuth Distance (km) Brightness Sun altitude
Exits shadow 13:44:46 12° 241° (WSW) 2,286 4.0 -15.4°
Drops below altitude 10° 13:45:50 10° 231° (SW) 2,459 4.3 -15.2°
Sets 13:49:26 0° 208° (SSW) 3,390 5.2 -14.5°
